This demonstration page uses our WeatherBlox Daily Observations layout. Learn more.

Left ArrowRight Arrow

Hourly Observations for May 27, 2021

Temp ( °F °C ) Dew Point ( °F °C ) Humidity (%) Winds ( mph kmh ) Pressure ( in mb ) Visibility ( mi km ) Precip ( " mm )
12:53 am 00:53 Clear 68 20 60 15.6 76 76 Calm 30.09 1019 10 16 0.00 0.00
1:53 am 01:53 Clear 67 19.4 60 15.6 79 79 Calm 30.09 1019 10 16 0.00 0.00
2:53 am 02:53 Clear 65 18.3 60 15.6 84 84 Calm 30.07 1018 10 16 0.00 0.00
3:53 am 03:53 Clear 66 18.9 61 16.1 84 84 Calm 30.07 1018 10 16 0.00 0.00
4:53 am 04:53 Clear 64 17.8 61 16.1 90 90 Calm 30.06 1018 10 16 0.00 0.00
5:53 am 05:53 Clear 67 19.4 62 16.7 84 84 Calm 30.06 1018 10 16 0.00 0.00
6:53 am 06:53 Sunny 68 20 61 16.1 78 78 Calm 30.08 1019 10 16 0.00 0.00
7:53 am 07:53 Partly Cloudy 68 20 62 16.7 81 81 W 3 6 30.09 1019 10 16 0.00 0.00
8:53 am 08:53 Sunny 72 22.2 64 17.8 76 76 Calm 30.11 1020 10 16 0.00 0.00
9:53 am 09:53 Partly Cloudy 76 24.4 65 18.3 69 69 NNW 5 7 30.12 1020 10 16 0.00 0.00
10:53 am 10:53 Mostly Cloudy 80 26.7 64 17.8 58 58 Calm 30.10 1019 10 16 0.00 0.00
11:53 am 11:53 Mostly Cloudy 82 27.8 64 17.8 55 55 VRB 7 11 30.09 1019 10 16 0.00 0.00
12:53 pm 12:53 Mostly Sunny 83 28.3 63 17.2 51 51 S 6 9 30.07 1018 10 16 0.00 0.00
1:53 pm 13:53 Mostly Cloudy 84 28.9 61 16.1 46 46 S 7 11 30.05 1018 10 16 0.00 0.00
2:53 pm 14:53 Mostly Cloudy 84 28.9 61 16.1 46 46 S 12 19 30.03 1017 10 16 0.00 0.00
3:53 pm 15:53 Partly Cloudy 85 29.4 61 16.1 45 45 SSW 8 13 30.00 1016 10 16 0.00 0.00
4:53 pm 16:53 Mostly Cloudy 82 27.8 63 17.2 53 53 W 13 20 29.98 1015 10 16 0.00 0.00
5:53 pm 17:53 Mostly Cloudy 83 28.3 63 17.2 51 51 WSW 12 19 29.98 1015 10 16 0.00 0.00
6:53 pm 18:53 Partly Cloudy 81 27.2 65 18.3 58 58 WSW 8 13 29.98 1015 10 16 0.00 0.00
7:53 pm 19:53 Mostly Sunny 80 26.7 65 18.3 60 60 SSW 6 9 29.98 1015 10 16 0.00 0.00
8:53 pm 20:53 Mostly Cloudy 78 25.6 66 18.9 67 67 S 6 9 29.98 1015 10 16 0.00 0.00
9:53 pm 21:53 Mostly Clear 76 24.4 65 18.3 69 69 SSW 5 7 29.98 1015 10 16 0.00 0.00
10:53 pm 22:53 Cloudy 76 24.4 65 18.3 69 69 WSW 3 6 30.00 1016 10 16 0.00 0.00
11:53 pm 23:53 Mostly Cloudy 74 23.3 65 18.3 74 74 SW 3 6 30.00 1016 10 16 0.00 0.00

Powered by AerisWeather